Stations météo

réclame
Mon MeteoGroup
Florennes, Belgique (6456): Température de l'air & dewpoint: 17.09.2017 23:00:00 - 23.09.2017 23:00:00 (CEST)Florennes, Belgique (6456): Vitesse du vent & gusts: 17.09.2017 23:00:00 - 23.09.2017 23:00:00 (CEST)Florennes, Belgique (6456): Direction du vent: 17.09.2017 23:00:00 - 23.09.2017 23:00:00 (CEST)Florennes, Belgique (6456): reduced air pressure: 17.09.2017 23:00:00 - 23.09.2017 23:00:00 (CEST)Florennes, Belgique (6456): visibility: 17.09.2017 23:00:00 - 23.09.2017 23:00:00 (CEST)
Date & Time tt [°C] td [°C] ff [km/h] ff [knt] fx [km/h] fx [knt] dd ppp [hPa] vv [km]
23.09.2017 23:00:00 10,6 8,9 - - - - - 1023,1 13
23.09.2017 22:00:00 11,1 9,4 - - 0 0 - 1023,2 12
23.09.2017 21:00:00 11,7 9,8 - - 0 0 - 1023,0 11
23.09.2017 20:00:00 12,1 9,0 - - - - - 1022,7 18
23.09.2017 19:00:00 13,8 8,3 - - 0 0 - 1022,5 20
23.09.2017 18:00:00 15,8 8,9 - - 0 0 - 1022,2 20
23.09.2017 17:00:00 16,0 8,8 - - - - - 1022,2 20
23.09.2017 16:00:00 16,7 8,3 - - 0 0 - 1022,7 10
23.09.2017 15:00:00 15,6 8,3 - - 0 0 - 1023,6 20
23.09.2017 14:00:00 15,2 10,7 - - - - - 1023,7 10
23.09.2017 13:00:00 14,1 11,8 - - 0 0 - 1024,0 11
23.09.2017 12:00:00 12,5 12,0 - - 0 0 - 1024,5 8
23.09.2017 11:00:00 11,5 - - - - - - - 0,5
23.09.2017 10:00:00 10,2 - - - 0 0 - - 0,2
23.09.2017 09:00:00 8,8 - - - 0 0 - - 0,2
23.09.2017 08:00:00 8,3 - - - - - - - 0,2
23.09.2017 07:00:00 7,8 - - - 0 0 - - 0,1
23.09.2017 06:00:00 8,3 8,2 - - 0 0 - 1024,7 2,0
23.09.2017 05:00:00 8,9 9,3 - - - - - 1024,7 2,4
23.09.2017 04:00:00 8,8 8,7 - - 0 0 - 1024,9 3,6
23.09.2017 03:00:00 8,6 - - - 0 0 - - 0,1
23.09.2017 02:00:00 10,1 10,1 - - - - - 1024,5 0,8
23.09.2017 01:00:00 10,5 10,5 4 2 4 2 N 1024,2 3,3
23.09.2017 00:00:00 11,1 11,1 2 1 7 4 - 1024,0 4,9
22.09.2017 23:00:00 10,9 10,8 4 2 - - N 1024,2 9
22.09.2017 22:00:00 10,6 10,4 4 2 0 0 N 1023,8 13
22.09.2017 21:00:00 11,8 11,5 4 2 4 2 N 1023,5 19
22.09.2017 20:00:00 13,3 12,3 4 2 - - N 1022,7 19
22.09.2017 19:00:00 14,8 12,7 7 4 14 8 W 1022,1 20
22.09.2017 18:00:00 15,5 12,7 11 6 14 8 WSW 1021,7 15
22.09.2017 17:00:00 15,4 13,2 11 6 - - WNW 1021,7 12
22.09.2017 16:00:00 15,5 12,6 11 6 14 8 W 1021,7 15
22.09.2017 15:00:00 15,1 13,0 11 6 18 10 WNW 1021,6 15
22.09.2017 14:00:00 15,3 12,3 4 2 - - N 1021,3 15
22.09.2017 13:00:00 14,8 11,5 7 4 11 6 W 1021,2 20
22.09.2017 12:00:00 15,5 12,4 4 2 11 6 - 1020,8 10
22.09.2017 11:00:00 14,1 11,6 4 2 - - N 1021,0 20
22.09.2017 10:00:00 13,1 10,9 4 2 4 2 N 1021,0 20
22.09.2017 09:00:00 9,6 9,6 4 2 0 0 N 1021,0 15
22.09.2017 08:00:00 7,3 7,3 4 2 - - N 1020,8 15
22.09.2017 07:00:00 6,5 6,5 4 2 4 2 N 1020,7 12
22.09.2017 06:00:00 7,1 7,1 4 2 4 2 N 1020,6 12
22.09.2017 05:00:00 7,7 7,7 4 2 - - N 1020,5 19
22.09.2017 04:00:00 8,1 8,1 4 2 4 2 N 1020,3 19
22.09.2017 03:00:00 9,1 8,8 4 2 7 4 N 1020,5 20
22.09.2017 02:00:00 10,1 9,5 4 2 - - N 1020,3 20
22.09.2017 01:00:00 8,8 8,6 4 2 4 2 N 1020,3 20
22.09.2017 00:00:00 9,6 9,1 4 2 4 2 N 1020,2 20
21.09.2017 23:00:00 10,3 9,3 4 2 - - N 1020,2 20
21.09.2017 22:00:00 10,8 9,4 4 2 0 0 N 1020,2 20
21.09.2017 21:00:00 11,8 9,7 4 2 7 4 N 1019,8 20
21.09.2017 20:00:00 13,3 9,7 4 2 - - N 1019,2 20
21.09.2017 19:00:00 15,1 9,4 4 2 11 6 N 1019,0 20
21.09.2017 18:00:00 16,1 8,7 7 4 18 10 S 1018,6 20
21.09.2017 17:00:00 16,8 7,9 11 6 - - S 1018,6 20
21.09.2017 16:00:00 17,0 7,2 11 6 22 12 S 1018,8 20
21.09.2017 15:00:00 16,9 8,0 11 6 22 12 S 1019,2 20
21.09.2017 14:00:00 16,5 8,2 14 8 - - SSE 1019,6 20
21.09.2017 13:00:00 15,6 7,6 14 8 22 12 S 1020,1 20
21.09.2017 12:00:00 14,1 9,1 11 6 22 12 S 1020,7 20
21.09.2017 11:00:00 12,6 8,8 11 6 - - S 1021,0 20
21.09.2017 10:00:00 11,1 8,0 7 4 11 6 SSE 1021,1 20
21.09.2017 09:00:00 8,7 7,5 4 2 7 4 N 1021,2 20
21.09.2017 08:00:00 8,0 7,0 4 2 - - N 1021,2 20
21.09.2017 07:00:00 7,5 6,8 4 2 11 6 - 1021,3 10
21.09.2017 06:00:00 8,0 7,2 4 2 14 8 N 1021,2 20
21.09.2017 05:00:00 8,3 7,6 4 2 - - N 1021,3 20
21.09.2017 04:00:00 8,6 7,8 4 2 11 6 N 1021,7 20
21.09.2017 03:00:00 8,8 7,8 7 4 11 6 SSE 1021,7 20
21.09.2017 02:00:00 9,3 8,0 4 2 - - N 1021,8 20
21.09.2017 01:00:00 9,2 7,7 4 2 11 6 N 1021,7 20
21.09.2017 00:00:00 9,8 8,1 7 4 14 8 S 1021,7 20
20.09.2017 23:00:00 10,1 8,2 11 6 - - S 1021,8 10
20.09.2017 22:00:00 10,7 8,6 11 6 18 10 S 1021,7 20
20.09.2017 21:00:00 11,3 9,0 11 6 11 6 S 1021,7 20
20.09.2017 20:00:00 11,5 8,9 7 4 - - SSW 1021,6 20
20.09.2017 19:00:00 13,3 9,0 11 6 22 12 SW 1021,3 20
20.09.2017 18:00:00 14,4 9,7 14 8 22 12 WSW 1021,2 20
20.09.2017 17:00:00 14,4 8,7 11 6 - - WSW 1021,6 10
20.09.2017 16:00:00 14,5 9,9 11 6 22 12 WSW 1021,7 20
20.09.2017 15:00:00 14,5 9,8 14 8 29 16 SW 1021,8 20
20.09.2017 14:00:00 13,1 9,2 14 8 - - WSW 1022,2 20
20.09.2017 13:00:00 13,1 9,9 18 10 25 14 W 1022,5 20
20.09.2017 12:00:00 13,3 10,3 18 10 25 14 WSW 1022,5 20
20.09.2017 11:00:00 11,9 9,7 14 8 - - SW 1022,7 18
20.09.2017 10:00:00 10,4 8,7 15 8 18 10 WSW 1022,8 10
20.09.2017 09:00:00 8,7 8,6 11 6 14 8 SW 1023,0 6
20.09.2017 08:00:00 7,6 7,6 4 2 - - N 1022,8 4,0
20.09.2017 07:00:00 8,1 8,1 5 3 11 6 SSW 1022,6 5
20.09.2017 06:00:00 9,3 9,3 7 4 14 8 WSW 1022,3 4,0
20.09.2017 05:00:00 9,8 9,7 9 5 - - WSW 1022,3 3,8
20.09.2017 04:00:00 9,8 - 7 4 11 6 W - 2,8
20.09.2017 03:00:00 9,6 - 9 5 14 8 W - 3,9
20.09.2017 02:00:00 10,1 10,1 7 4 - - W 1022,5 4,9
20.09.2017 01:00:00 10,8 10,8 7 4 18 10 W 1022,7 4,4
20.09.2017 00:00:00 10,8 10,8 7 4 22 12 W 1022,7 6
19.09.2017 23:00:00 11,0 11,0 11 6 - - W 1022,6 20
19.09.2017 22:00:00 11,0 10,1 11 6 14 8 W 1022,2 20
19.09.2017 21:00:00 11,5 9,9 11 6 14 8 W 1021,8 20
19.09.2017 20:00:00 12,3 9,6 7 4 - - WNW 1021,2 20
19.09.2017 19:00:00 13,8 8,6 4 2 14 8 N 1020,5 20
19.09.2017 18:00:00 15,0 8,9 7 4 18 10 NNW 1019,7 20
19.09.2017 17:00:00 15,0 8,9 14 8 - - NW 1019,6 20
19.09.2017 16:00:00 14,9 8,6 11 6 18 10 NNW 1019,6 20
19.09.2017 15:00:00 14,1 8,7 13 7 18 10 NW 1019,5 10
19.09.2017 14:00:00 12,8 9,1 15 8 - - WNW 1019,8 10
19.09.2017 13:00:00 12,5 10,3 11 6 22 12 W 1019,7 20
19.09.2017 12:00:00 11,0 9,8 11 6 18 10 W 1019,7 15
19.09.2017 11:00:00 10,3 10,0 9 5 - - W 1019,2 10
19.09.2017 10:00:00 9,6 9,2 11 6 22 12 W 1018,7 6
19.09.2017 09:00:00 9,2 9,2 13 7 22 12 W 1018,2 3,0
19.09.2017 08:00:00 8,6 8,6 16 9 - - W 1018,1 2,5
19.09.2017 07:00:00 9,0 8,9 14 8 22 12 W 1017,7 4,0
19.09.2017 06:00:00 9,0 8,9 14 8 22 12 W 1017,3 6
19.09.2017 05:00:00 9,1 9,1 14 8 - - W 1017,5 7
19.09.2017 04:00:00 9,1 9,1 14 8 22 12 W 1017,3 7
19.09.2017 03:00:00 9,1 9,1 14 8 25 14 W 1017,7 6
19.09.2017 02:00:00 9,3 - 14 8 - - W - 3,7
19.09.2017 01:00:00 9,6 9,6 11 6 18 10 WSW 1017,2 8
19.09.2017 00:00:00 9,5 9,5 13 7 22 12 WSW 1017,3 9
18.09.2017 23:00:00 9,3 9,3 9 5 - - WSW 1017,5 10
18.09.2017 22:00:00 9,1 9,1 11 6 14 8 WSW 1017,3 20
18.09.2017 21:00:00 9,2 9,2 7 4 11 6 WSW 1017,2 20
18.09.2017 20:00:00 9,5 9,3 11 6 - - WSW 1016,8 20
18.09.2017 19:00:00 10,3 9,9 14 8 25 14 WSW 1016,5 20
18.09.2017 18:00:00 11,3 9,8 18 10 32 18 WSW 1015,8 10
18.09.2017 17:00:00 11,1 10,3 14 8 - - SSW 1015,7 20
18.09.2017 16:00:00 9,8 9,7 15 8 32 18 SW 1016,2 8
18.09.2017 15:00:00 12,4 10,2 24 13 32 18 SSW 1015,7 10
18.09.2017 14:00:00 12,9 10,2 22 12 - - SSW 1015,6 20
18.09.2017 13:00:00 12,1 10,4 18 10 25 14 SW 1015,8 10
18.09.2017 12:00:00 10,7 10,7 18 10 25 14 SW 1016,1 10
18.09.2017 11:00:00 9,3 9,3 15 8 - - SSW 1016,2 5
18.09.2017 10:00:00 8,1 8,1 13 7 18 10 SW 1016,2 1,8
18.09.2017 09:00:00 7,4 7,4 11 6 14 8 SW 1016,0 2,5
18.09.2017 08:00:00 6,5 6,5 7 4 - - SW 1015,8 1,0
18.09.2017 07:00:00 6,4 6,4 7 4 0 0 SW 1015,7 2,0
18.09.2017 06:00:00 6,9 6,9 7 4 0 0 WSW 1015,1 20
18.09.2017 05:00:00 7,2 7,1 7 4 - - WSW 1015,1 20
18.09.2017 04:00:00 8,1 7,5 - - 0 0 - 1015,2 20
18.09.2017 03:00:00 8,0 7,6 - - 0 0 - 1015,1 20
18.09.2017 02:00:00 8,1 7,9 - - - - - 1015,2 20
18.09.2017 01:00:00 8,3 7,6 - - 0 0 - 1015,2 20
18.09.2017 00:00:00 8,8 7,8 - - 0 0 - 1015,1 20
17.09.2017 23:00:00 9,1 8,4 - - - - - 1015,2 20

tt = Température de l'air
td = dewpoint
ff = Vitesse du vent
fx = gusts
dd = Direction du vent
ppp = reduced air pressure
vv = visibility

stations d'obs. à proximité